• MPC Preparation (Info)

  • MPEC 2013-V53 : 2013 VA10

    The following Minor Planet Electronic Circular may be linked-to from your own Web pages, but must not otherwise be redistributed electronically.

    A form allowing access to any MPEC is at the bottom of this page.


    Read MPEC 2013-V52 Read MPEC 2013-V54


    M.P.E.C. 2013-V53                                Issued 2013 Nov.  9, 14:19 UT
    
         The Minor Planet Electronic Circulars contain information on unusual
             minor planets and routine data on comets.  They are published
       on behalf of Commission 20 of the International Astronomical Union by the
              Minor Planet Center, Smithsonian Astrophysical Observatory,
                              Cambridge, MA 02138, U.S.A.
    
                 Prepared using the Tamkin Foundation Computer Network
    
                                  MPC@CFA.HARVARD.EDU
                URL https://www.minorplanetcenter.net/    ISSN 1523-6714
    
                                       2013 VA10
    
    Observations:
         K13V10A* C2013 11 08.00375 03 47 51.28 +11 37 54.1          18.0 VrEV053J75
         K13V10A  C2013 11 08.00834 03 47 46.35 +11 37 50.4          17.9 VrEV053J75
         K13V10A  C2013 11 08.01282 03 47 41.57 +11 37 46.7          17.9 VrEV053J75
         K13V10A  C2013 11 08.02753 03 47 25.94 +11 37 35.1          18.2 VrEV053J75
         K13V10A  C2013 11 08.05685 03 46 54.68 +11 37 12.4          18.1 VrEV053J75
         K13V10A  C2013 11 08.05885 03 46 52.56 +11 37 11.1          18.2 VrEV053J75
         K13V10A KC2013 11 08.14228 03 45 30.75 +11 35 58.5          18.4 RqEV053734
         K13V10A KC2013 11 08.14744 03 45 25.41 +11 35 54.8          18.4 RqEV053734
         K13V10A KC2013 11 08.15087 03 45 21.85 +11 35 52.4          18.1 RqEV053734
         K13V10A KC2013 11 08.31566403 42 32.78 +11 33 43.1          18.3 VrEV053H21
         K13V10A KC2013 11 08.31944203 42 28.96 +11 33 39.9          18.3 VrEV053H21
         K13V10A KC2013 11 08.32321003 42 25.17 +11 33 36.8          18.4 VrEV053H21
         K13V10A  C2013 11 08.33934 03 42 10.35 +11 33 33.5          18.3 RoEV053926
         K13V10A  C2013 11 08.33953 03 42 10.09 +11 33 33.3          18.6 RcEV053651
         K13V10A KC2013 11 08.33991 03 42 08.83 +11 33 24.0          18.2 RqEV053H36
         K13V10A  C2013 11 08.34028 03 42 09.37 +11 33 32.6          18.3 RcEV053651
         K13V10A  C2013 11 08.34102 03 42 08.60 +11 33 32.1          18.5 RcEV053651
         K13V10A KC2013 11 08.34383 03 42 04.88 +11 33 20.9          18.5 RqEV053H36
         K13V10A  C2013 11 08.34427 03 42 05.38 +11 33 29.5          18.2 RoEV053926
         K13V10A KC2013 11 08.34675 03 42 01.91 +11 33 18.5          18.5 RqEV053H36
         K13V10A  C2013 11 08.34788 03 42 01.75 +11 33 26.6          18.1 RoEV053926
         K13V10A  C2013 11 08.60698 03 37 55.06 +11 29 51.7          18.7 VqEV053900
         K13V10A  C2013 11 08.61433 03 37 48.03 +11 29 45.9          18.8 VqEV053900
         K13V10A  C2013 11 08.62167 03 37 40.95 +11 29 39.8          18.7 VqEV053900
         K13V10A KC2013 11 08.86621 03 33 59.97 +11 25 59.9                qEV053J95
         K13V10A KC2013 11 08.86936 03 33 57.09 +11 25 57.1                qEV053J95
         K13V10A KC2013 11 08.87279 03 33 54.04 +11 25 54.9          18.3 RqEV053J95
         K13V10A KC2013 11 08.87331 03 33 54.01 +11 26 05.1          17.7 RtEV053I58
         K13V10A KC2013 11 08.88487 03 33 43.54 +11 25 56.6          18.1 RtEV053I58
         K13V10A KC2013 11 08.89344703 33 35.39 +11 25 39.6          18.2 RqEV053J84
         K13V10A KC2013 11 08.89445 03 33 34.87 +11 25 48.7          17.9 RtEV053I58
         K13V10A KC2013 11 08.89995 03 33 29.96 +11 25 44.6          17.9 RcEV053J08
         K13V10A KC2013 11 08.90903903 33 21.37 +11 25 27.0          18.4 RqEV053J84
         K13V10A KC2013 11 08.91667703 33 14.50 +11 25 21.0          18.2 RqEV053J84
         K13V10A KC2013 11 08.92430903 33 07.63 +11 25 15.0          18.1 RqEV053J84
         K13V10A KC2013 11 08.94419 03 32 50.01 +11 25 10.5          18.4 RcEV053J08
         K13V10A KC2013 11 08.94772 03 32 46.85 +11 25 06.6          18.7 RcEV053J08
         K13V10A KC2013 11 08.95125 03 32 43.67 +11 25 04.1          18.4 RcEV053J08
         K13V10A KC2013 11 08.95436 03 32 40.85 +11 24 48.7          18.3 VoEV053J41
         K13V10A KC2013 11 08.96022 03 32 35.69 +11 24 43.3          18.6 VoEV053J41
         K13V10A KC2013 11 08.96612 03 32 30.31 +11 24 39.1          18.5 VoEV053J41
         K13V10A KC2013 11 09.02231 03 31 40.16 +11 24 02.7          18.8 VuEV053958
         K13V10A KC2013 11 09.03100 03 31 32.46 +11 23 56.0          18.5 VuEV053958
         K13V10A KC2013 11 09.04238 03 31 22.40 +11 23 46.6          18.5 VuEV053958
         K13V10A KC2013 11 09.04338 03 31 21.50 +11 23 46.7          18.6 VuEV053958
    
    Observer details:
    651 Grasslands Observatory, Tucson.  Observer J. E. McGaha.  0.62-m f/5.1
        Newtonian reflector + CCD.
    734 Farpoint Observatory.  Observer G. Hug.  0.69-m reflector + CCD.
    900 Moriyama.  Observer Y. Ikari.  0.26-m f/7.0 reflector + CCD.
    926 Tenagra II Observatory.  Observers M. Schwartz, P. R. Holvorcem,
        J.-C. Merlin.  0.41-m f/3.75 astrograph + CCD, 0.81-m f/7 Ritchey-Chretien
        + CCD.
    958 Observatoire de Dax.  Observers P. Dupouy, J. B. de Vanssay.  Measurer
        P. Dupouy.  0.43-m f/2.7 reflector + CCD.
    H21 Astronomical Research Observatory, Westfield.  Observer R. Holmes.
        Measurers S. Foglia, L. Buzzi, H. Devore, A. Kostin, T. Linder,
        T. Lister. T. Vorobjov, M. Urbanik, R. Holmes.  0.61-m f/4.0 astrograph
        + CCD, 0.61-m f/4.5 astrograph + CCD, 0.81-m f/4.0 astrograph + CCD.
    H36 Sandlot Observatory, Scranton.  Observer G. Hug.  0.56-m reflector + CCD.
    I58 Betera.  Observer O. Rodrigo.  Measurer M. Gil.  0.25-m f/6.3
        Schmidt-Cassegrain + CCD.
    J08 Observatorio Zonalunar, Puzol.  Observer A. Carreno.  Measurer J. Piqueras.
        0.20-m f/5 Newtonian reflector + CCD.
    J41 Raheny.  Observers D. Grennan, N. Hayden.  0.35-m f/3.8 reflector + CCD.
    J75 OAM Observatory, La Sagra.  Observers S. Sanchez, J. Nomen, M. Hurtado,
        J. A. Jaume, W. K. Y. Yeung, F. Serra, T. Valls, J. Hurtado.  0.45-m f/2.8
        reflector + CCD.
    J84 South Observatory, Clanfield.  Observer D. Briggs.  0.61-m f/4.75
        reflector + CCD.
    J95 Great Shefford.  Observer P. Birtwhistle.  0.40-m f/6.0 Schmidt-Cassegrain
        + CCD.
    
    Orbital elements:
    2013 VA10                                                Earth MOID = 0.0095 AU
    Epoch 2013 Nov. 4.0 TT = JDT 2456600.5                  MPC
    M  39.95975              (2000.0)            P               Q
    n   0.79183363     Peri.  164.31720     -0.01064034     +0.99979437
    a   1.1571245      Node   105.07075     -0.91934170     -0.00299063
    e   0.7615632      Incl.    1.02438     -0.39331617     -0.02005700
    P   1.24           H   22.2           G   0.15
    From 45 observations 2013 Nov. 8-9.  E-assumed.
    
    Ephemeris:
    2013 VA10                a,e,i = 1.16, 0.76, 1                   q = 0.2759
    Date    TT    R. A. (2000) Decl.     Delta      r     Elong.  Phase     V
    2013 10 10    12 28 00.1 -05 16 02   0.3322  0.6718     8.4   167.4    33.6
    ...
    2013 10 25    10 51 43.9 -00 10 25   0.1264  0.9139    47.6   126.6    22.9
    ...
    2013 11 02    06 50 44.8 +10 22 44   0.07478 1.0274   116.1    60.2    18.8
    ...
    2013 11 08    03 47 55.2 +11 38 30   0.1187  1.1062   165.7    12.8    18.5
    2013 11 09    03 32 00.4 +11 24 58   0.1301  1.1189   169.8     9.0    18.6
    2013 11 10    03 18 42.9 +11 11 24   0.1421  1.1314   172.6     6.4    18.7
    ...
    2013 11 16    02 31 42.8 +10 10 05   0.2213  1.2038   164.6    12.6    20.1
    ...
    2013 11 24    02 06 52.9 +09 37 25   0.3380  1.2935   151.1    21.7    21.5
    ...
    2013 12 09    01 54 50.8 +09 49 56   0.5773  1.4432   133.3    29.8    23.1
    
    A. U. Tomatic                (C) Copyright 2013 MPC           M.P.E.C. 2013-V53
    

    Read MPEC 2013-V52 Read MPEC 2013-V54


    MPEC number:

    Enter an MPEC number in one of the following forms:

    • 1997-B01 (the full form)
    • J97B01 (the packed version of the full form)
    • B01 (the abbreviated form)